Flag for India Weather past 2 weeks in Nagercoil, Tamil Nadu, India

Now
79 °F

Passing clouds.


Feels Like: 82 °F
Forecast: 77 / 89 °F
Wind: 3 mph from West

Location: Thiruvananthapuram

Current Time: Aug 2, 2015 at 5:55:24 AM

Latest Report: Aug 2, 2015 at 4:40 AM


Visibility: 2 mi

Pressure: 29.83 "Hg

Humidity: 84%

Dew point: 73 °F

Location of NagercoilLocation

Historic Weather in Nagercoil — Graph

°F

Nagercoil temperature yesterday

Maximum temperature yesterday: 88 °F (at 1:40 PM)
Minimum temperature yesterday: 79 °F (at 1:40 AM)
Average temperature yesterday: 83 °F

Past Weeks' High & Low Weather Summary

 TemperatureHumidityPressure
High90 °F (Jul 27, 2:10 PM)94% (Jul 18, 5:40 AM)29.89 "Hg (Jul 18, 5:40 AM)
Low75 °F (Jul 18, 5:40 AM)59% (Jul 28, 10:40 AM)29.71 "Hg (Jul 19, 3:10 AM)
Average82 °F80%29.81 "Hg
* Reported Jul 18 4:40 AM — Aug 2 4:40 AM, Nagercoil, Weather by CustomWeather, © 2015

Note: Actual official high and low records may vary slightly from our data, if they occured in-between our weather recording intervals... More about our weather records

Advertising

Nagercoil weather history for previous 24 hours

 ConditionsComfort  
Time TempWeatherWind HumidityBarometerVisibility
4:40 AM
Sun, Aug 2
79 °FPassing clouds.3 mph84%29.83 "Hg2 mi
3:40 AM79 °FHaze.3 mph84%29.83 "Hg2 mi
1:40 AM79 °FHaze.6 mph89%29.86 "Hg2 mi
12:40 AM79 °FHaze.6 mph89%29.86 "Hg2 mi
12:10 AM79 °FHaze.6 mph84%29.89 "Hg2 mi
11:40 PM
Sat, Aug 1
79 °FHaze.8 mph84%29.89 "Hg2 mi
11:10 PM79 °FHaze.9 mph84%29.89 "Hg2 mi
10:10 PM81 °FHaze.12 mph84%29.89 "Hg2 mi
9:40 PM81 °FHaze.9 mph84%29.86 "Hg2 mi
9:10 PM81 °FHaze.13 mph84%29.86 "Hg2 mi
8:40 PM81 °FHaze.10 mph84%29.86 "Hg2 mi
8:10 PM82 °FHaze.10 mph79%29.86 "Hg2 mi
7:40 PM82 °FHaze.13 mph79%29.83 "Hg2 mi
7:10 PM84 °FHaze.10 mph79%29.83 "Hg2 mi
6:40 PM84 °FHaze.13 mph79%29.80 "Hg2 mi
6:10 PM84 °FHaze.15 mph79%29.80 "Hg3 mi
5:40 PM84 °FHaze.N/A79%29.77 "Hg3 mi
5:10 PM86 °FScattered clouds.14 mph75%29.77 "Hg3 mi
4:40 PM86 °FScattered clouds.15 mph75%29.77 "Hg3 mi
4:10 PM86 °FScattered clouds.17 mph79%29.77 "Hg3 mi
3:40 PM88 °FScattered clouds.17 mph70%29.77 "Hg3 mi
2:40 PM88 °FScattered clouds.17 mph70%29.80 "Hg3 mi
2:10 PM88 °FScattered clouds.15 mph70%29.80 "Hg3 mi
1:40 PM88 °FScattered clouds.15 mph70%29.80 "Hg3 mi
12:40 PM86 °FScattered clouds.10 mph70%29.83 "Hg3 mi
11:40 AM84 °FScattered clouds.12 mph74%29.86 "Hg3 mi
9:40 AM84 °FScattered clouds.N/A74%29.86 "Hg2 mi
8:40 AM82 °FScattered clouds.8 mph79%29.86 "Hg2 mi
7:40 AM81 °FScattered clouds.6 mph84%29.86 "Hg2 mi
6:40 AM79 °FPassing clouds.6 mph84%29.83 "Hg2 mi
5:40 AM79 °FPassing clouds.12 mph84%29.83 "Hg2 mi
Weather by CustomWeather, © 2015

See weather overviewHow to use our weather pages